Regional Weather Roundup
Issued by NWS Nashville, TN

Home | Current Version | Previous Version | Text Only | Print | Product List | Glossary On
Versions: 1 2 3 4 5 6 7 8 9 10 11 12 13 14 15 16 17 18 19 20 21 22 23 24 25 26 27 28 29 30 31 32 33 34 35 36 37 38 39 40 41 42 43 44 45 46 47 48 49 50
000
ASUS44 KOHX 031010
RWROHX
MIDDLE TENNESSEE HOURLY WEATHER ROUNDUP
NATIONAL WEATHER SERVICE NASHVILLE TN
400 AM CST TUE MAR 03 2015

NOTE: "FAIR" INDICATES FEW OR NO CLOUDS BELOW 12,000 FEET WITH
NO SIGNIFICANT WEATHER AND/OR OBSTRUCTIONS TO VISIBILITY.

* THESE REPORTS ARE NOT UNDER NWS QUALITY CONTROL AND MAY NOT
  REPORT WEATHER SUCH AS PRECIPITATION AND FOG.


TNZ005>011-023>034-057-059-062>066-078-080-031100
...NORTHERN MIDDLE TENNESSEE...

CITY           SKY/WX    TMP DP  RH WIND       PRES   REMARKS
CLARKSVILLE    CLOUDY    40  30  67 SE5       30.11F
CROSSVILLE     CLOUDY    43  41  93 VRB5      30.15F FOG
GALLATIN       CLOUDY    42  30  62 CALM      30.15S
DICKSON        CLOUDY    43  39  87 S7        30.10F
LIVINGSTON     CLOUDY    45  34  65 SW5       30.12F
NASHVILLE      CLOUDY    44  35  70 S6        30.13F
PORTLAND       CLOUDY    39  28  65 SE7       30.11F WCI  34
SMYRNA         CLOUDY    44  38  79 S7        30.15F
SPARTA           N/A     46  39  76 S7        30.14R
$$
TNZ056-058-060-061-075>077-079-093>097-031100
...SOUTHERN MIDDLE TENNESSEE...

CITY           SKY/WX    TMP DP  RH WIND       PRES   REMARKS
COLUMBIA       CLOUDY   N/A N/A N/A CALM      30.11F
LEWISBURG      CLOUDY    41  38  89 CALM      30.15F
MCMINNVILLE    CLOUDY    45  39  81 NE17      30.14S SQUALL
MURFREESBORO   CLOUDY    44  40  86 S6        30.14F
SHELBYVILLE    CLOUDY    43  43 100 E3        30.15S
TULLAHOMA        N/A     45  39  81 CALM      30.15S
WINCHESTER     CLOUDY    46  43  87 E8        30.16S
$$


...KEY TO REMARKS...
VSB - VISIBILITY IN MILES
WCI - WIND CHILL INDEX
HX  - HEAT INDEX



USA.gov is the U.S. government's official web portal to all federal, state and local government web resources and services.